National Weather Service Raw Text Product

Displaying AFOS PIL: RWRMI Received: 2019-03-26 14:00 UTC


617 
ASUS43 KDTX 261401
RWRMI 
MICHIGAN HOURLY REGIONAL WEATHER ROUNDUP
NATIONAL WEATHER SERVICE DETROIT/PONTIAC MI
1000 AM EDT TUE MAR 26 2019

NOTE: "FAIR" INDICATES FEW OR NO CLOUDS BELOW 12,000 FEET WITH NO
SIGNIFICANT WEATHER AND/OR OBSTRUCTION TO VISIBILITY.

MIZ047>049-052>055-059>063-066>070-074>076-081>083-261500-
SOUTHEAST LOWER MICHIGAN
  
CITY           SKY/WX    TMP DP  RH WIND       PRES   REMARKS
ADRIAN         FAIR      31  15  52 NE13      30.45R WCI  21          
ALMA           FAIR      33  11  41 NE5       30.48R WCI  28          
ANN ARBOR      FAIR      32  17  54 N10       30.44R WCI  24          
BAD AXE        FAIR      31  23  70 N5        30.44S WCI  27          
CARO           FAIR      32  20  62 N6        30.46R WCI  26          
DETROIT CITY   FAIR      33  19  56 NE12      30.45R WCI  24          
DETROIT        FAIR      33  16  49 N13       30.45R WCI  24          
FLINT          FAIR      32  16  51 N7        30.47R WCI  26          
GROSSE ILE     FAIR      33  20  57 NE9       30.45R WCI  25          
HILLSDALE      FAIR      31  10  41 NE10      30.42R WCI  23          
HOWELL         FAIR      30  13  49 NE6       30.45R WCI  24          

CITY           SKY/WX    TMP DP  RH WIND       PRES   REMARKS
JACKSON        FAIR      31  13  47 N9        30.44R WCI  23          
LAMBERTVILLE   FAIR      32  19  58 NE7       30.45R WCI  26          
LANSING        FAIR      31  12  45 NE8       30.47R WCI  23          
LAPEER         FAIR      31  22  67 NE6       30.45R WCI  26          
MASON          FAIR      31  13  46 NE8       30.46R WCI  24          
MONROE         FAIR      32  19  59 N6        30.45R WCI  26          
MT. CLEMENS    MOSUNNY   32  24  70 N9        30.44R WCI  25          
PONTIAC        FAIR      31  18  58 NE10      30.43R WCI  22          
PORT HOPE        N/A     33  21  61 NE5       30.44R WCI  29          
PORT HURON     FAIR      34  23  64 N3        30.45R                  
TRI CITIES     FAIR      31  15  52 N8        30.48R WCI  23          
MIDLAND        FAIR      31  17  54 CALM      30.47S                  
TROY           FAIR      33  16  49 NE10      30.47R WCI  24          
SAGINAW HB     FAIR      32  21  64 N7        30.47R WCI  26          
$$
MIZ043>046-050>051-056>058-064>065-071>073-077>080-261500-
SOUTHWEST LOWER MICHIGAN
  
CITY           SKY/WX    TMP DP  RH WIND       PRES   REMARKS
BATTLE CREEK   FAIR      32   9  38 E9        30.45R WCI  24          
BENTON HARBOR  FAIR      34  10  37 E8        30.47R WCI  27          
BIG RAPIDS     FAIR      30  18  61 CALM      30.46R                  
COLDWATER      FAIR      32  10  39 NE8       30.44S WCI  25          
FREMONT        FAIR      32  11  41 CALM      30.47R                  
HOLLAND        FAIR      33  10  38 E8        30.48R WCI  26          
GRAND RAPIDS   FAIR      33  10  38 E9        30.47R WCI  25          
IONIA          FAIR      32   6  34 NE8       30.46S WCI  24          
KALAMAZOO      FAIR      32   5  32 NE8       30.46R WCI  25          
LUDINGTON      FAIR      32  15  50 CALM      30.47S                  
MARSHALL       FAIR      32  11  42 NE7       30.45R WCI  25          
MOUNT PLEASANT FAIR      32  15  50 N3        30.46S                  
MUSKEGON       FAIR      35   7  31 E7        30.48R WCI  29          
SOUTH HAVEN    FAIR      34   3  27 E7        30.47R WCI  27          
$$
MIZ016>042-261500-
NORTHERN LOWER MICHIGAN
  
CITY           SKY/WX    TMP DP  RH WIND       PRES   REMARKS
ALPENA         FAIR      30  17  58 N3        30.46R                  
BEAVER ISLAND  FAIR      32  20  60 W5        30.45S WCI  27          
BELLAIRE       FAIR      25  18  74 CALM      30.48R                  
CADILLAC       FAIR      30  13  50 CALM      30.42S                  
CHARLEVOIX     FAIR      25  18  72 CALM      30.49R                  
FRANKFORT      FAIR      35  16  47 CALM      30.47R                  
GAYLORD        FAIR      23  10  57 W3        30.42R                  
GRAYLING         N/A     26  13  59 CALM      30.43R                  
HARBOR SPRINGS FAIR      26  13  59 CALM      30.45S                  
HOUGHTON LAKE  FAIR      27  12  53 W3        30.45R                  
MANISTEE       FAIR      31  20  63 SE3       30.47R                  
OSCODA         FAIR      31  18  58 N3        30.46S                  
PELLSTON       FAIR      26  14  60 CALM      30.46R                  
ROGERS CITY    FAIR      31  21  68 N3        30.46S                  
TRAVERSE CITY  FAIR      32  20  61 S3        30.46R                  
$$
MIZ007>008-015-261500-
EASTERN UPPER MICHIGAN
  
CITY           SKY/WX    TMP DP  RH WIND       PRES   REMARKS
KINROSS        FAIR      28  17  63 W3        30.44R                  
MACKINAC ISLAN FAIR      27  19  71 W3        30.45R                  
NEWBERRY       FAIR      27  18  68 SW3       30.42S                  
S. S. MARIE    FAIR      24  21  88 CALM      30.43R                  
MUNISING         N/A     29  11  47 S5        30.42R WCI  24          
$$
MIZ004>006-011>014-085-261500-
CENTRAL UPPER MICHIGAN
  
CITY           SKY/WX    TMP DP  RH WIND       PRES   REMARKS
MANISTIQUE     FAIR      30  10  42 CALM      30.44S                  
ESCANABA       FAIR      30  23  75 CALM      30.45R                  
MENOMINEE      FAIR      31  28  89 SW5       30.46R WCI  26          
SAWYER-GWINN   SUNNY     19   7  58 CALM      30.39R                  
$$
MIZ001>003-009>011-084-261500-
WESTERN UPPER MICHIGAN
  
CITY           SKY/WX    TMP DP  RH WIND       PRES   REMARKS
IRON MOUNTAIN  FAIR      27   8  44 CALM      30.40R                  
HOUGHTON       FAIR      32   8  36 SW5       30.36S WCI  27          
COPPER HARBOR    N/A     32  15  49 VRB5      30.39R WCI  27          
IRONWOOD       FAIR      29   6  38 CALM      30.38S                  
$$

ABBREVIATIONS USED IN REMARKS
   TC - TEMPERATURE IN CELSIUS
  WCI - WIND CHILL INDEX
   HX - HEAT INDEX
  VSB - VISIBILITY